Regional Weather Roundup
Issued by NWS Midland/Odessa, TX

Skip options and go directly to product.
Home | Oldest Version | Previous Version | Current Version | All | Graphics & Text | Save Text | Print | Product List | Glossary On

Skip product version selection by date and time.   
395
ASUS44 KMAF 062210
RWRMAF
MIDLAND AREA WEATHER ROUNDUP
NATIONAL WEATHER SERVICE MIDLAND TX
500 PM CDT MON JUL 06 2015

...IN SOUTHWEST TEXAS AND SOUTHEAST NEW MEXICO...

CITY           SKY/WX    TMP DP  RH WIND       PRES   REMARKS
ALPINE         CLOUDY    67  65  91 E6        30.16F THUNDER
ANDREWS        PTSUNNY   86  64  46 S17G24    29.92R
ARTESIA        CLOUDY    88  64  45 W10G18    29.93F
BIG SPRING     SUNNY     99  64  31 S16       29.91F HX 102
CARLSBAD       MOSUNNY  102  56  21 W6        29.88F HX 101
DRYDEN           N/A     88  67  49 S26G33    29.94R
FORT STOCKTON  LGT RAIN  73  68  84 S13       29.99R
GUAD PASS      SUNNY     92  58  31 W18G28    30.10F
HOBBS          MOSUNNY   97  55  24 S13G23    29.93F
MARFA          PTSUNNY  N/A N/A N/A NE23G31   30.14R THUNDER
MIDLAND AIRPK  CLOUDY    93  62  35 S20G26    29.93R
MIDLAND INTL   CLOUDY    85  66  53 S31G40    29.94R THUNDER HAZE
ODESSA         TSTM      78  68  71 SW22G33   29.98R
PECOS          CLOUDY    88  63  43 SE21      29.90F
PRESIDIO       FAIR      98  62  30 W3        29.91F
SEMINOLE       MOSUNNY   98  55  23 S9        29.91F
SNYDER         MOSUNNY   93  70  47 S15       29.90F
WINK           LGT RAIN  87  66  49 SE25G33   29.90R
$$
...OTHER STATIONS IN TEXAS...

CITY           SKY/WX    TMP DP  RH WIND       PRES   REMARKS
ABILENE        MOSUNNY   94  67  41 S21G29    29.90F
AMARILLO       PTSUNNY   83  65  54 NE12      29.97F
AUSTIN         PTSUNNY   90  69  50 S22G30    29.96F
BROWNSVILLE    MOSUNNY   89  76  65 SE20G31   29.97F HX 100
CORPUS CHRISTI CLOUDY    88  75  65 SE25G33   29.97F
DALLAS FTW     PTSUNNY   90  65  43 S20G31    29.93F
DEL RIO        SUNNY     95  67  39 SE16G24   29.89F
EL PASO        PTSUNNY   96  53  23 W12       29.97F
HOUSTON INT    PTSUNNY   91  71  51 S13       30.02F
LUBBOCK        TSTM      91  66  43 VRB6G17   29.90S
SAN ANGELO     SUNNY     95  66  38 S16       29.92F
SAN ANTONIO    MOSUNNY   90  70  51 SE20G26   29.97F
WACO           MOSUNNY   91  67  44 S18G28    29.95F
WICHITA FALLS  NOT AVBL
$$
...OTHER LOCATIONS IN NEW MEXICO...

CITY           SKY/WX    TMP DP  RH WIND       PRES   REMARKS
ALAMAGORDO     SUNNY     93  52  24 W12G18    29.98F
ALBUQUERQUE    MOSUNNY   89  50  26 CALM      30.08F
CANNON AFB     PTSUNNY   82  66  56 NE10G26   30.01S
CLOVIS         CLOUDY    70  64  83 NE10        N/A
HOLLOMAN AFB   MOSUNNY   94  53  24 W14       29.96F
ROSWELL        CLOUDY    91  60  35 SW9       29.92F
RUIDOSO        LGT RAIN  68  59  73 NE12G17   30.23R
SANTA FE       PTSUNNY   75  53  46 N12       30.19F
TRUTH OR CONSE MOSUNNY   92  48  22 N9        30.04F
TUCUMCARI      PTSUNNY   84  60  44 NE28      30.02S
$$

USA.gov is the U.S. government's official web portal to all federal, state and local government web resources and services.